Time,TemperatureF,DewpointF,PressureIn,WindDirection,WindDirectionDegrees,WindSpeedMPH,WindSpeedGustMPH,Humidity,HourlyPrecipIn,Conditions,Clouds,dailyrainin,SoftwareType,DateUTC
2013-07-12 03:16:00,72.1,65.7,-100.00,NE,45,0.0,-999.0,80,-99.99,,,0.00,meteohub,2013-07-12 00:16:00,
2013-07-12 03:21:00,72.1,65.7,-100.00,North,0,0.0,3.0,80,0.00,,,0.00,meteohub,2013-07-12 00:21:00,
2013-07-12 03:27:00,72.1,65.7,-100.00,North,0,1.0,3.0,80,0.00,,,0.00,meteohub,2013-07-12 00:27:00,
2013-07-12 03:32:00,72.1,65.7,-100.00,North,0,1.0,3.0,80,0.00,,,0.00,meteohub,2013-07-12 00:32:00,
2013-07-12 03:37:00,72.1,65.7,-100.00,NE,45,1.0,3.0,80,0.00,,,0.00,meteohub,2013-07-12 00:37:00,
2013-07-12 03:43:00,72.1,66.0,-100.00,NE,45,4.0,4.0,81,0.00,,,0.00,meteohub,2013-07-12 00:43:00,
2013-07-12 03:48:00,72.0,65.8,-100.00,North,0,0.0,4.0,81,0.00,,,0.00,meteohub,2013-07-12 00:48:00,
2013-07-12 03:54:00,71.8,65.7,-100.00,North,0,1.0,4.0,81,0.00,,,0.00,meteohub,2013-07-12 00:54:00,
2013-07-12 04:00:00,71.8,65.7,-100.00,East,90,3.0,4.0,81,0.00,,,0.00,meteohub,2013-07-12 01:00:00,
2013-07-12 04:07:00,71.8,65.7,-100.00,NE,45,1.0,4.0,81,0.00,,,0.00,meteohub,2013-07-12 01:07:00,
2013-07-12 04:15:00,71.8,65.7,-100.00,NE,45,3.0,4.0,81,0.00,,,0.00,meteohub,2013-07-12 01:15:00,
2013-07-12 04:20:00,71.6,65.5,-100.00,NE,45,4.0,4.0,81,0.00,,,0.00,meteohub,2013-07-12 01:20:00,
2013-07-12 04:25:00,71.6,65.8,-100.00,NE,45,0.0,4.0,82,0.00,,,0.00,meteohub,2013-07-12 01:25:00,
2013-07-12 04:31:00,71.6,65.8,-100.00,North,0,1.0,4.0,82,0.00,,,0.00,meteohub,2013-07-12 01:31:00,
2013-07-12 04:37:00,71.6,65.8,-100.00,NE,45,0.0,4.0,82,0.00,,,0.00,meteohub,2013-07-12 01:37:00,
2013-07-12 04:43:00,71.4,66.0,-100.00,North,0,1.0,3.0,83,0.00,,,0.00,meteohub,2013-07-12 01:43:00,
2013-07-12 04:50:00,71.4,66.0,-100.00,East,90,3.0,3.0,83,0.00,,,0.00,meteohub,2013-07-12 01:50:00,
2013-07-12 04:55:00,71.4,66.0,-100.00,NE,45,2.0,5.0,83,0.00,,,0.00,meteohub,2013-07-12 01:55:00,
2013-07-12 05:01:00,71.4,66.0,-100.00,NE,45,2.0,5.0,83,0.00,,,0.00,meteohub,2013-07-12 02:01:00,
2013-07-12 05:07:00,71.4,66.0,-100.00,NE,45,0.0,4.0,83,0.00,,,0.00,meteohub,2013-07-12 02:07:00,
2013-07-12 05:12:00,71.4,66.0,-100.00,NE,45,0.0,4.0,83,0.00,,,0.00,meteohub,2013-07-12 02:12:00,
2013-07-12 05:20:00,71.4,66.0,-100.00,NE,45,0.0,4.0,83,0.00,,,0.00,meteohub,2013-07-12 02:20:00,
2013-07-12 05:29:00,71.4,66.0,-100.00,NE,45,1.0,4.0,83,0.00,,,0.00,meteohub,2013-07-12 02:29:00,
2013-07-12 05:34:00,71.4,66.0,-100.00,NE,45,0.0,3.0,83,0.00,,,0.00,meteohub,2013-07-12 02:34:00,
2013-07-12 05:40:00,71.4,66.0,-100.00,NE,45,2.0,5.0,83,0.00,,,0.00,meteohub,2013-07-12 02:40:00,
2013-07-12 05:45:00,71.4,66.0,-100.00,NE,45,1.0,5.0,83,0.00,,,0.00,meteohub,2013-07-12 02:45:00,
2013-07-12 05:50:00,71.4,66.0,-100.00,NE,45,1.0,4.0,83,0.00,,,0.00,meteohub,2013-07-12 02:50:00,
2013-07-12 05:56:00,71.4,66.0,-100.00,NE,45,0.0,4.0,83,0.00,,,0.00,meteohub,2013-07-12 02:56:00,
2013-07-12 06:01:00,71.4,66.0,-100.00,NE,45,2.0,3.0,83,0.00,,,0.00,meteohub,2013-07-12 03:01:00,
2013-07-12 06:06:00,71.4,66.0,-100.00,NE,45,0.0,3.0,83,0.00,,,0.00,meteohub,2013-07-12 03:06:00,
2013-07-12 06:11:00,71.4,66.0,-100.00,NE,45,0.0,3.0,83,0.00,,,0.00,meteohub,2013-07-12 03:11:00,
2013-07-12 06:16:00,71.4,66.0,-100.00,NE,45,0.0,3.0,83,0.00,,,0.00,meteohub,2013-07-12 03:16:00,
2013-07-12 06:22:00,71.4,66.0,-100.00,NE,45,0.0,6.0,83,0.00,,,0.00,meteohub,2013-07-12 03:22:00,
2013-07-12 06:30:00,71.4,66.0,-100.00,NE,45,1.0,6.0,83,0.00,,,0.00,meteohub,2013-07-12 03:30:00,
2013-07-12 06:36:00,71.4,66.0,-100.00,NE,45,2.0,3.0,83,0.00,,,0.00,meteohub,2013-07-12 03:36:00,
2013-07-12 06:42:00,71.4,66.0,-100.00,NE,45,1.0,3.0,83,0.00,,,0.00,meteohub,2013-07-12 03:42:00,
2013-07-12 06:48:00,71.6,66.2,-100.00,NE,45,0.0,4.0,83,0.00,,,0.00,meteohub,2013-07-12 03:48:00,
2013-07-12 06:53:00,71.6,65.8,-100.00,NE,45,2.0,4.0,82,0.00,,,0.00,meteohub,2013-07-12 03:53:00,
2013-07-12 07:00:00,71.8,66.0,-100.00,NE,45,0.0,4.0,82,0.00,,,0.00,meteohub,2013-07-12 04:00:00,
2013-07-12 07:01:00,71.8,66.0,-100.00,NE,45,0.0,3.0,82,0.00,,,0.00,meteohub,2013-07-12 04:01:00,
2013-07-12 07:02:00,71.8,66.0,-100.00,NE,45,0.0,3.0,82,0.00,,,0.00,meteohub,2013-07-12 04:02:00,
2013-07-12 07:03:00,71.8,66.0,-100.00,NE,45,0.0,3.0,82,0.00,,,0.00,meteohub,2013-07-12 04:03:00,
2013-07-12 07:04:00,71.8,66.0,-100.00,NE,45,0.0,3.0,82,0.00,,,0.00,meteohub,2013-07-12 04:04:00,
2013-07-12 07:05:00,71.8,66.0,-100.00,NE,45,0.0,1.0,82,0.00,,,0.00,meteohub,2013-07-12 04:05:00,
2013-07-12 07:10:00,72.0,66.2,-100.00,NE,45,0.0,0.0,82,0.00,,,0.00,meteohub,2013-07-12 04:10:00,
2013-07-12 07:15:00,72.0,66.2,-100.00,NE,45,0.0,2.0,82,0.00,,,0.00,meteohub,2013-07-12 04:15:00,
2013-07-12 07:19:00,72.0,66.2,-100.00,East,90,0.0,2.0,82,0.00,,,0.00,meteohub,2013-07-12 04:19:00,
2013-07-12 07:22:00,72.1,66.4,-100.00,NE,45,2.0,3.0,82,0.00,,,0.00,meteohub,2013-07-12 04:22:00,
2013-07-12 07:32:00,72.3,66.2,-100.00,NE,45,2.0,5.0,81,0.00,,,0.00,meteohub,2013-07-12 04:32:00,
2013-07-12 07:37:00,72.5,66.4,-100.00,NE,45,0.0,5.0,81,0.00,,,0.00,meteohub,2013-07-12 04:37:00,
2013-07-12 07:42:00,72.5,66.4,-100.00,NE,45,0.0,3.0,81,0.00,,,0.00,meteohub,2013-07-12 04:42:00,
2013-07-12 07:47:00,72.7,66.2,-100.00,NE,45,0.0,3.0,80,0.00,,,0.00,meteohub,2013-07-12 04:47:00,
2013-07-12 07:52:00,72.9,66.4,-100.00,NE,45,1.0,2.0,80,0.00,,,0.00,meteohub,2013-07-12 04:52:00,
2013-07-12 07:57:00,72.9,66.4,-100.00,East,90,4.0,4.0,80,0.00,,,0.00,meteohub,2013-07-12 04:57:00,
2013-07-12 08:02:00,72.9,66.0,-100.00,NE,45,1.0,4.0,79,0.00,,,0.00,meteohub,2013-07-12 05:02:00,
2013-07-12 08:07:00,73.2,66.4,-100.00,NE,45,3.0,4.0,79,0.00,,,0.00,meteohub,2013-07-12 05:07:00,
2013-07-12 08:12:00,73.2,66.0,-100.00,North,0,3.0,4.0,78,0.00,,,0.00,meteohub,2013-07-12 05:12:00,
2013-07-12 08:17:00,73.4,65.7,-100.00,NE,45,3.0,3.0,77,0.00,,,0.00,meteohub,2013-07-12 05:17:00,
2013-07-12 08:22:00,73.4,64.9,-100.00,NE,45,2.0,3.0,75,0.00,,,0.00,meteohub,2013-07-12 05:22:00,
2013-07-12 08:27:00,73.6,65.1,-100.00,NE,45,4.0,4.0,75,0.00,,,0.00,meteohub,2013-07-12 05:27:00,
2013-07-12 08:32:00,73.8,64.6,-100.00,NE,45,2.0,4.0,73,0.00,,,0.00,meteohub,2013-07-12 05:32:00,
2013-07-12 08:38:00,74.1,64.0,-100.00,NE,45,4.0,4.0,71,0.00,,,0.00,meteohub,2013-07-12 05:38:00,
2013-07-12 08:43:00,74.3,63.9,-100.00,East,90,4.0,4.0,70,0.00,,,0.00,meteohub,2013-07-12 05:43:00,
2013-07-12 08:48:00,74.8,64.8,-100.00,East,90,3.0,4.0,71,0.00,,,0.00,meteohub,2013-07-12 05:48:00,
2013-07-12 08:53:00,75.4,64.6,-100.00,East,90,5.0,5.0,69,0.00,,,0.00,meteohub,2013-07-12 05:53:00,
2013-07-12 08:58:00,75.9,64.2,-100.00,NE,45,0.0,5.0,67,0.00,,,0.00,meteohub,2013-07-12 05:58:00,
2013-07-12 09:03:00,76.6,64.0,-100.00,East,90,1.0,6.0,65,0.00,,,0.00,meteohub,2013-07-12 06:03:00,